Location: Morlupo
(42.1333°N, 12.5000°E)
Time: 15:23:09
(UTC+00:00)

Cosmos 1844 - Pass Details

Date: 18 September 2020
Orbit: 824 x 866 km, 70.9° (Epoch: 25 October)

Event Time Altitude Azimuth Distance (km) Brightness Sun altitude
Rises 19:24:53 0° 201° (SSW) 3,415 6.8 -24.3°
Reaches altitude 10° 19:27:20 10° 201° (SSW) 2,477 6.1 -24.7°
Maximum altitude 19:33:02 87° 113° (ESE) 854 3.6 -25.6°
Drops below altitude 10° 19:38:43 10° 25° (NNE) 2,464 6.2 -26.5°
Sets 19:41:09 0° 25° (NNE) 3,396 6.9 -26.9°
